Tracking 35237 objects as of 6-Sep-2026
HD Live streaming from Space Station
objects crossing your sky now

OBJECT M

Track OBJECT M now!
10-day predictions


NORAD ID: 67259
Int'l Code: 2025-313M
Launch date: December 28, 2025
Source: (TBD)
Launch site: VOSTOCHNY COSMODROME (VOSTO)
Your satellite tracking list
Your tracking list is empty




NASA's NSSDC Master Catalog

Two Line Element Set (TLE):
1 67259U 25313M   26248.93845077  .00007252  00000-0  28235-3 0  9997
2 67259  97.3906 322.9092 0015208  79.1012 281.1937 15.26187831 38271
Source of the keplerian elements: AFSPC